N5CSC Weather Reports


Display with metric or nautical units.
time (UTC)temp
F
wind
direction
speed
MPH
gust
MPH
rain 1hr
in
rain 24hr
in
rain mn
in
humidity
%
barometer
mb
20220706164558 91 160 4.0 11.0 0.00 0.00 0.00 47 1013.6
20220706163054 91 196 3.0 8.0 0.00 0.00 0.00 49 1013.7
20220706161549 90 93 4.0 9.0 0.00 0.00 0.00 51 1013.9
20220706160046 88 243 3.0 7.0 0.00 0.00 0.00 52 1013.8
20220706154544 87 202 3.0 11.0 0.00 0.00 0.00 54 1013.8
20220706153040 87 184 2.0 9.0 0.00 0.00 0.00 58 1013.8
20220706151536 85 190 1.0 7.0 0.00 0.00 0.00 62 1013.9
20220706150033 84 217 1.0 6.0 0.00 0.00 0.00 66 1013.9
20220706144528 83 177 3.0 8.0 0.00 0.00 0.00 68 1014.0
20220706143026 82 174 3.0 8.0 0.00 0.00 0.00 70 1014.1
20220706141522 81 194 3.0 7.0 0.00 0.00 0.00 72 1014.1
20220706140027 81 201 3.0 7.0 0.00 0.00 0.00 73 1014.2
20220706134526 80 180 3.0 6.0 0.00 0.00 0.00 78 1014.0
20220706133016 79 178 3.0 5.0 0.00 0.00 0.00 79 1013.9
20220706131516 78 202 4.0 7.0 0.00 0.00 0.00 82 1013.9
20220706130016 77 184 2.0 4.0 0.00 0.00 0.00 84 1013.9
20220706124519 76 194 0.0 2.0 0.00 0.00 0.00 85 1013.7
20220706123025 76 194 0.0 0.0 0.00 0.00 0.00 85 1013.7
20220706121514 76 194 0.0 0.0 0.00 0.00 0.00 85 1013.9
20220706120012 75 194 0.0 0.0 0.00 0.00 0.00 84 1013.9
20220706114509 75 194 0.0 0.0 0.00 0.00 0.00 84 1013.6
20220706113008 75 194 0.0 0.0 0.00 0.00 0.00 84 1013.5
20220706111507 76 194 0.0 0.0 0.00 0.00 0.00 84 1013.3
20220706110005 76 194 0.0 0.0 0.00 0.00 0.00 84 1013.2
20220706104514 75 194 0.0 0.0 0.00 0.00 0.00 84 1013.2
20220706103004 75 194 0.0 0.0 0.00 0.00 0.00 84 1012.9
20220706101503 76 194 0.0 0.0 0.00 0.00 0.00 84 1012.8
20220706100006 75 194 0.0 0.0 0.00 0.00 0.00 83 1012.7
20220706094504 76 194 0.0 0.0 0.00 0.00 0.00 83 1012.7
20220706093001 76 194 0.0 2.0 0.00 0.00 0.00 83 1012.7
20220706091600 76 194 0.0 0.0 0.00 0.00 0.00 82 1012.6
20220706090058 76 194 0.0 0.0 0.00 0.00 0.00 82 1012.8
20220706084555 76 194 0.0 0.0 0.00 0.00 0.00 82 1012.9
20220706083054 77 194 0.0 0.0 0.00 0.00 0.00 82 1012.9
20220706081552 77 194 0.0 1.0 0.00 0.00 0.00 81 1012.9
20220706080102 77 194 0.0 4.0 0.00 0.00 0.00 81 1013.1
20220706074549 78 181 0.0 6.0 0.00 0.00 0.00 81 1013.2
20220706073046 78 179 2.0 6.0 0.00 0.00 0.00 80 1013.1
20220706071544 79 174 2.0 6.0 0.00 0.00 0.00 79 1013.2
20220706070044 79 204 3.0 9.0 0.00 0.00 0.00 78 1013.1
20220706064542 79 158 2.0 7.0 0.00 0.00 0.00 78 1013.2
20220706063043 79 163 2.0 5.0 0.00 0.00 0.00 77 1013.2
20220706061540 79 165 2.0 9.0 0.00 0.00 0.00 76 1013.2
20220706060038 79 127 2.0 6.0 0.00 0.00 0.00 75 1013.2
20220706054537 80 159 2.0 7.0 0.00 0.00 0.00 74 1013.2
20220706053037 80 165 2.0 6.0 0.00 0.00 0.00 73 1013.3
20220706051533 81 140 3.0 8.0 0.00 0.00 0.00 71 1013.2
20220706050036 81 119 3.0 7.0 0.00 0.00 0.00 69 1013.0
20220706044549 82 165 3.0 11.0 0.00 0.00 0.00 67 1012.9
20220706043028 82 188 5.0 11.0 0.00 0.00 0.00 66 1013.0
20220706041527 83 136 3.0 11.0 0.00 0.00 0.00 63 1012.9
20220706040027 84 127 4.0 9.0 0.00 0.00 0.00 60 1012.7
20220706034526 84 149 3.0 7.0 0.00 0.00 0.00 58 1012.5
20220706033025 85 163 6.0 11.0 0.00 0.00 0.00 57 1012.2
20220706031525 86 165 5.0 12.0 0.00 0.00 0.00 55 1012.1
20220706030024 86 167 7.0 12.0 0.00 0.00 0.00 54 1011.8
20220706024524 87 98 5.0 9.0 0.00 0.00 0.00 53 1011.6
20220706020100 90 140 4.0 10.0 0.00 0.00 0.00 47 1010.8
20220706014603 91 162 4.0 11.0 0.00 0.00 0.00 45 1010.6
20220706013058 92 152 5.0 12.0 0.00 0.00 0.00 43 1010.4
20220706011603 93 136 5.0 12.0 0.00 0.00 0.00 41 1010.2
20220706010057 94 170 9.0 17.0 0.00 0.00 0.00 39 1009.9
20220706004556 95 111 4.0 10.0 0.00 0.00 0.00 36 1009.8
20220706003057 96 135 6.0 10.0 0.00 0.00 0.00 33 1009.5
20220706001554 97 174 4.0 7.0 0.00 0.00 0.00 32 1009.6
20220706000054 98 153 3.0 7.0 0.00 0.00 0.00 30 1009.6
20220705234554 98 142 4.0 13.0 0.00 0.00 0.00 30 1009.6
20220705233056 98 152 4.0 8.0 0.00 0.00 0.00 29 1009.5
20220705231551 98 155 4.0 10.0 0.00 0.00 0.00 31 1009.7
20220705230049 99 163 6.0 10.0 0.00 0.00 0.00 30 1009.7
20220705224548 99 79 3.0 11.0 0.00 0.00 0.00 30 1010.0
20220705223047 99 128 4.0 11.0 0.00 0.00 0.00 29 1010.0
20220705221547 99 136 5.0 8.0 0.00 0.00 0.00 30 1010.1
20220705220046 99 123 7.0 13.0 0.00 0.00 0.00 30 1010.4
20220705214541 99 156 4.0 13.0 0.00 0.00 0.00 30 1010.6
20220705213039 100 126 4.0 9.0 0.00 0.00 0.00 30 1010.8
20220705211541 100 171 4.0 7.0 0.00 0.00 0.00 31 1011.0
20220705210043 99 180 4.0 11.0 0.00 0.00 0.00 32 1011.3
20220705204530 98 146 3.0 10.0 0.00 0.00 0.00 32 1011.5
20220705203027 98 152 4.0 13.0 0.00 0.00 0.00 32 1011.8
20220705201524 97 132 3.0 10.0 0.00 0.00 0.00 33 1012.0
20220705200022 97 240 4.0 10.0 0.00 0.00 0.00 35 1012.3
20220705194534 97 148 5.0 12.0 0.00 0.00 0.00 36 1012.4
20220705193015 95 159 4.0 11.0 0.00 0.00 0.00 41 1012.7
20220705191518 95 169 1.0 6.0 0.00 0.00 0.00 38 1012.9
20220705190011 95 200 2.0 9.0 0.00 0.00 0.00 39 1013.1
20220705184509 95 181 2.0 8.0 0.00 0.00 0.00 40 1013.4
20220705183005 95 200 4.0 9.0 0.00 0.00 0.00 42 1013.6
20220705181501 94 161 4.0 10.0 0.00 0.00 0.00 43 1013.7
20220705180057 93 172 4.0 9.0 0.00 0.00 0.00 44 1013.9
20220705174554 91 180 1.0 6.0 0.00 0.00 0.00 50 1014.0
20220705173102 90 209 2.0 5.0 0.00 0.00 0.00 50 1014.2
20220705171549 90 197 2.0 5.0 0.00 0.00 0.00 52 1014.4
20220705170044 89 159 2.0 7.0 0.00 0.00 0.00 54 1014.5